When you browse on this site, cookies collect data to enhance your experience and personalize the content and advertising you see.
Visit our Privacy Policy to learn more. By continuing to use the site, you agree to this use of cookies and data.
  • în România
  • Lista ţărilor
  • Pe 7 zile
  • Temperatura apei
  • Meteo pe hartă
  • Widget-uri
  • user-avatar
    Intrare

    Meteo pe oră la Lubango

    Astăzi, 2 Iunie, Marţi

    Timp Temperatura Precipitaţii Vânt Presiune Umiditate
    00:00 +14°C° 0 mm 1 m/s 609 mmHg 41%
    01:00 +14°C° 0 mm 1 m/s 610 mmHg 43%
    02:00 +14°C° 0 mm 1 m/s 609 mmHg 44%
    03:00 +13°C° 0 mm 1 m/s 609 mmHg 45%
    04:00 +13°C° 0 mm 1 m/s 609 mmHg 47%
    05:00 +13°C° 0 mm 2 m/s 609 mmHg 50%
    06:00 +13°C° 0 mm 2 m/s 609 mmHg 54%
    07:00 +13°C° 0 mm 2 m/s 609 mmHg 57%
    08:00 +16°C° 0 mm 3 m/s 610 mmHg 50%
    09:00 +19°C° 0 mm 3 m/s 611 mmHg 42%
    10:00 +22°C° 0 mm 4 m/s 612 mmHg 35%
    11:00 +23°C° 0 mm 4 m/s 612 mmHg 32%
    12:00 +25°C° 0 mm 3 m/s 612 mmHg 30%
    13:00 +26°C° 0 mm 3 m/s 612 mmHg 27%
    14:00 +25°C° 0 mm 2 m/s 611 mmHg 28%
    15:00 +25°C° 0 mm 1 m/s 611 mmHg 29%
    16:00 +24°C° 0 mm 1 m/s 610 mmHg 30%
    17:00 +22°C° 0 mm 1 m/s 609 mmHg 33%
    18:00 +20°C° 0 mm 1 m/s 609 mmHg 36%
    19:00 +18°C° 0 mm 1 m/s 609 mmHg 38%
    20:00 +18°C° 0 mm 1 m/s 609 mmHg 39%
    21:00 +18°C° 0 mm 1 m/s 609 mmHg 40%
    22:00 +16°C° 0 mm 1 m/s 609 mmHg 41%
    23:00 +16°C° 0 mm 1 m/s 609 mmHg 42%

    Mâine, 3 Iunie, Miercuri

    Timp Temperatura Precipitaţii Vânt Presiune Umiditate
    00:00 +16°C° 0 mm 1 m/s 609 mmHg 44%
    01:00 +16°C° 0 mm 1 m/s 609 mmHg 45%
    02:00 +15°C° 0 mm 1 m/s 608 mmHg 45%
    03:00 +15°C° 0 mm 1 m/s 608 mmHg 45%
    04:00 +14°C° 0 mm 1 m/s 608 mmHg 45%
    05:00 +14°C° 0 mm 1 m/s 608 mmHg 46%
    06:00 +14°C° 0 mm 1 m/s 608 mmHg 46%
    07:00 +14°C° 0 mm 1 m/s 608 mmHg 46%
    08:00 +18°C° 0 mm 1 m/s 609 mmHg 40%
    09:00 +20°C° 0 mm 2 m/s 611 mmHg 34%
    10:00 +24°C° 0 mm 2 m/s 612 mmHg 29%
    11:00 +25°C° 0 mm 2 m/s 611 mmHg 27%
    12:00 +25°C° 0 mm 2 m/s 611 mmHg 25%
    13:00 +26°C° 0 mm 2 m/s 611 mmHg 23%
    14:00 +26°C° 0 mm 2 m/s 610 mmHg 25%
    15:00 +25°C° 0 mm 2 m/s 610 mmHg 26%
    16:00 +24°C° 0 mm 1 m/s 609 mmHg 27%
    17:00 +22°C° 0 mm 1 m/s 609 mmHg 34%
    18:00 +19°C° 0 mm 2 m/s 608 mmHg 40%
    19:00 +16°C° 0 mm 2 m/s 608 mmHg 46%
    20:00 +16°C° 0 mm 1 m/s 608 mmHg 47%
    21:00 +15°C° 0 mm 1 m/s 608 mmHg 49%
    22:00 +15°C° 0 mm 1 m/s 608 mmHg 50%
    23:00 +15°C° 0 mm 1 m/s 608 mmHg 49%

    Poimâine, 4 Iunie, Joi

    Timp Temperatura Precipitaţii Vânt Presiune Umiditate
    00:00 +15°C° 0 mm 1 m/s 608 mmHg 49%
    01:00 +14°C° 0 mm 1 m/s 608 mmHg 48%
    02:00 +14°C° 0 mm 1 m/s 608 mmHg 47%
    03:00 +14°C° 0 mm 1 m/s 608 mmHg 47%
    04:00 +14°C° 0 mm 1 m/s 608 mmHg 46%
    05:00 +14°C° 0 mm 1 m/s 608 mmHg 46%
    06:00 +14°C° 0 mm 1 m/s 608 mmHg 46%
    07:00 +14°C° 0 mm 1 m/s 609 mmHg 46%
    08:00 +18°C° 0 mm 1 m/s 610 mmHg 40%
    09:00 +21°C° 0 mm 1 m/s 611 mmHg 34%
    10:00 +24°C° 0 mm 1 m/s 612 mmHg 28%
    11:00 +25°C° 0 mm 1 m/s 612 mmHg 26%
    12:00 +26°C° 0 mm 1 m/s 612 mmHg 25%
    13:00 +27°C° 0 mm 1 m/s 612 mmHg 23%
    14:00 +26°C° 0 mm 2 m/s 611 mmHg 24%
    15:00 +26°C° 0 mm 2 m/s 611 mmHg 25%
    16:00 +25°C° 0 mm 2 m/s 610 mmHg 26%
    17:00 +21°C° 0 mm 2 m/s 609 mmHg 33%
    18:00 +19°C° 0 mm 2 m/s 609 mmHg 40%
    19:00 +16°C° 0 mm 1 m/s 608 mmHg 47%
    20:00 +15°C° 0 mm 1 m/s 608 mmHg 48%
    21:00 +15°C° 0 mm 1 m/s 609 mmHg 49%
    22:00 +14°C° 0 mm 1 m/s 609 mmHg 50%
    23:00 +14°C° 0 mm 1 m/s 609 mmHg 49%

    5 Iunie, Vineri

    Timp Temperatura Precipitaţii Vânt Presiune Umiditate
    00:00 +14°C° 0 mm 1 m/s 609 mmHg 47%
    01:00 +14°C° 0 mm 1 m/s 609 mmHg 46%
    02:00 +14°C° 0 mm 1 m/s 609 mmHg 45%
    03:00 +14°C° 0 mm 1 m/s 608 mmHg 44%
    04:00 +14°C° 0 mm 1 m/s 608 mmHg 43%
    05:00 +14°C° 0 mm 1 m/s 609 mmHg 44%
    06:00 +14°C° 0 mm 1 m/s 609 mmHg 44%
    07:00 +14°C° 0 mm 1 m/s 609 mmHg 45%
    08:00 +17°C° 0 mm 2 m/s 610 mmHg 39%
    09:00 +20°C° 0 mm 2 m/s 612 mmHg 34%
    10:00 +24°C° 0 mm 2 m/s 613 mmHg 28%
    11:00 +25°C° 0 mm 2 m/s 613 mmHg 25%
    12:00 +26°C° 0 mm 2 m/s 612 mmHg 23%
    13:00 +27°C° 0 mm 2 m/s 612 mmHg 20%
    14:00 +27°C° 0 mm 2 m/s 612 mmHg 20%
    15:00 +27°C° 0 mm 2 m/s 612 mmHg 20%
    16:00 +27°C° 0 mm 1 m/s 611 mmHg 20%
    17:00 +23°C° 0 mm 1 m/s 611 mmHg 27%
    18:00 +20°C° 0 mm 1 m/s 610 mmHg 35%
    19:00 +16°C° 0 mm 1 m/s 609 mmHg 42%
    20:00 +16°C° 0 mm 1 m/s 609 mmHg 43%
    21:00 +16°C° 0 mm 1 m/s 609 mmHg 43%
    22:00 +15°C° 0 mm 1 m/s 610 mmHg 44%
    23:00 +15°C° 0 mm 1 m/s 610 mmHg 44%

    6 Iunie, Sâmbătă

    Timp Temperatura Precipitaţii Vânt Presiune Umiditate
    00:00 +15°C° 0 mm 1 m/s 610 mmHg 44%
    01:00 +15°C° 0 mm 1 m/s 609 mmHg 44%
    02:00 +14°C° 0 mm 1 m/s 609 mmHg 45%
    03:00 +14°C° 0 mm 1 m/s 609 mmHg 45%
    04:00 +14°C° 0 mm 2 m/s 609 mmHg 46%
    05:00 +14°C° 0 mm 2 m/s 609 mmHg 45%
    06:00 +14°C° 0 mm 2 m/s 609 mmHg 44%
    07:00 +14°C° 0 mm 2 m/s 610 mmHg 43%
    08:00 +17°C° 0 mm 3 m/s 611 mmHg 38%
    09:00 +20°C° 0 mm 3 m/s 612 mmHg 32%
    10:00 +22°C° 0 mm 4 m/s 613 mmHg 27%
    11:00 +25°C° 0 mm 4 m/s 613 mmHg 25%
    12:00 +26°C° 0 mm 3 m/s 613 mmHg 23%
    13:00 +27°C° 0 mm 3 m/s 612 mmHg 21%
    14:00 +27°C° 0 mm 3 m/s 612 mmHg 21%
    15:00 +26°C° 0 mm 2 m/s 611 mmHg 21%
    16:00 +26°C° 0 mm 2 m/s 611 mmHg 21%
    17:00 +23°C° 0 mm 2 m/s 610 mmHg 25%
    18:00 +20°C° 0 mm 2 m/s 610 mmHg 29%
    19:00 +17°C° 0 mm 2 m/s 609 mmHg 33%
    20:00 +16°C° 0 mm 2 m/s 609 mmHg 34%
    21:00 +16°C° 0 mm 2 m/s 609 mmHg 34%
    22:00 +15°C° 0 mm 2 m/s 609 mmHg 35%
    23:00 +15°C° 0 mm 2 m/s 609 mmHg 35%

    7 Iunie, Duminică

    Timp Temperatura Precipitaţii Vânt Presiune Umiditate
    00:00 +14°C° 0 mm 2 m/s 609 mmHg 36%
    01:00 +14°C° 0 mm 2 m/s 609 mmHg 36%
    02:00 +14°C° 0 mm 2 m/s 608 mmHg 36%
    03:00 +13°C° 0 mm 2 m/s 608 mmHg 36%
    04:00 +13°C° 0 mm 2 m/s 608 mmHg 37%
    05:00 +13°C° 0 mm 2 m/s 608 mmHg 38%
    06:00 +12°C° 0 mm 3 m/s 608 mmHg 38%
    07:00 +12°C° 0 mm 3 m/s 608 mmHg 39%
    08:00 +16°C° 0 mm 3 m/s 609 mmHg 35%
    09:00 +18°C° 0 mm 3 m/s 610 mmHg 30%
    10:00 +21°C° 0 mm 3 m/s 611 mmHg 26%
    11:00 +24°C° 0 mm 3 m/s 611 mmHg 24%
    12:00 +25°C° 0 mm 2 m/s 611 mmHg 21%
    13:00 +26°C° 0 mm 2 m/s 611 mmHg 19%
    14:00 +26°C° 0 mm 2 m/s 611 mmHg 19%
    15:00 +26°C° 0 mm 2 m/s 610 mmHg 19%
    16:00 +26°C° 0 mm 2 m/s 610 mmHg 19%
    17:00 +23°C° 0 mm 1 m/s 609 mmHg 22%
    18:00 +20°C° 0 mm 1 m/s 609 mmHg 26%
    19:00 +16°C° 0 mm 1 m/s 608 mmHg 29%
    20:00 +16°C° 0 mm 1 m/s 608 mmHg 30%
    21:00 +15°C° 0 mm 1 m/s 608 mmHg 30%
    22:00 +14°C° 0 mm 1 m/s 608 mmHg 30%
    23:00 +14°C° 0 mm 1 m/s 608 mmHg 30%
    Arată mai mult